This is the latest recevied weather packets stored in our database for station/object DB0ADS-6. If no packets are shown the sender has not sent any weather packets the latest 10 day(s).
| Time | Temp. | Humidity | Pressure | Rain* | Wind** | Luminosity | Snow |
|---|---|---|---|---|---|---|---|
| 1777479915 | 14.44° C | 31% | 1022.1 hPa | 0 mm | - | - | - |
| 1777478467 | 15° C | 31% | 1021.9 hPa | 0 mm | - | - | - |
| 1777477260 | 15.56° C | 29% | 1021.8 hPa | 0 mm | - | - | - |
| 1777475148 | 16.11° C | 28% | 1021.7 hPa | 0 mm | - | - | - |
| 1777473338 | 16.11° C | 27% | 1021.9 hPa | 0 mm | - | - | - |
| 1777472130 | 16.11° C | 27% | 1021.8 hPa | 0 mm | - | - | - |
| 1777470924 | 16.11° C | 27% | 1021.9 hPa | 0 mm | - | - | - |
| 1777469717 | 16.11° C | 27% | 1021.9 hPa | 0 mm | - | - | - |
| 1777469173 | 16.11° C | 27% | 1021.9 hPa | 0 mm | - | - | - |
| 1777468570 | 16.11° C | 27% | 1022 hPa | 0 mm | - | - | - |
| 1777466176 | 15.56° C | 26% | 1022 hPa | 0 mm | - | - | - |
| 1777465554 | 15.56° C | 25% | 1022.1 hPa | 0 mm | - | - | - |
| 1777465251 | 15.56° C | 26% | 1022.1 hPa | 0 mm | - | - | - |
| 1777464950 | 16.11° C | 26% | 1022.1 hPa | 0 mm | - | - | - |
| 1777463742 | 15° C | 26% | 1022.2 hPa | 0 mm | - | - | - |
| 1777462543 | 15° C | 26% | 1022.3 hPa | 0 mm | - | - | - |
| 1777462234 | 15° C | 26% | 1022.3 hPa | 0 mm | - | - | - |
| 1777461933 | 15° C | 26% | 1022.3 hPa | 0 mm | - | - | - |
| 1777461630 | 14.44° C | 27% | 1022.3 hPa | 0 mm | - | - | - |
| 1777461329 | 15° C | 27% | 1022.3 hPa | 0 mm | - | - | - |
| 1777461027 | 15° C | 26% | 1022.2 hPa | 0 mm | - | - | - |
| 1777460726 | 15° C | 27% | 1022.3 hPa | 0 mm | - | - | - |
| 1777460424 | 15° C | 27% | 1022.3 hPa | 0 mm | - | - | - |
| 1777458975 | 15° C | 27% | 1022.3 hPa | 0 mm | - | - | - |
| 1777458673 | 14.44° C | 28% | 1022.4 hPa | 0 mm | - | - | - |
* Rain latest hour (hover to see other rain measurements)
** Current wind speed in m/s (hover to see current wind gust speed)